Location: Banff
(51.1667°N, 115.5667°W)
Time: 06:55:01
(UTC+00:00)

S-56A Canister/Altair - Pass Details

Date: 01 December 2020
Orbit: 633 x 2499 km, 38.9° (Epoch: 21 January)

Event Time Altitude Azimuth Distance (km) Brightness Sun altitude
Rises 06:42:01 0° 266° (W) 4,746 11.7 -59.2°
Enters shadow 06:42:05 - 266° (W) 4,721 11.7 -59.2°
Reaches altitude 10° 06:46:17 10° 254° (WSW) 3,403 - -59.4°
Maximum altitude 06:52:18 23° 206° (SSW) 2,085 - -59.7°
Drops below altitude 10° 06:56:54 10° 155° (SSE) 2,518 - -60.0°
Sets 06:59:32 0° 140° (SE) 3,263 - -60.1°
